STARLINK-3048, 49148

Orbit data source: Space-Track

STARLINK-3048, 49148 is a payload satellite owned by SpaceX/Seattle (US) in LEO that was launched on Tue, 14 Sep 2021 UTC via an FALCON 9 launch vehicle from the Air Force Western Test Range (AFWTR). Payload-class satellites include a variety of spacecraft equipped with specific instruments for various scientific and technological missions. These include communications satellites like Starlink; space stations such as the ISS; scientific satellites like the Hubble; Earth observation satellites from companies like Planet Labs, Umbra, and HawkEye 360; GPS; miniature CubeSats for education and research; and military/defense satellites.

Loading next visibility...
Identifier
49148, 2021-082U
Orbit
LEO
Country
Flag of USUS
Related business
Manufacturer
SpaceX/Seattle
Mission
Operational Commercial Communications
Bus & Motor
STARLINK, Unknown motor
Mass
297 kg wet, ~275 kg dry
Launch date (UTC)
2021-09-14 (5 years ago)
Launch vehicle
FALCON 9
Launch site
Air Force Western Test Range (AFWTR)
Object type
Payload
Rocket body
Debris
Shape & HBR
Box + 1 Pan, 10.1 m
Radar Cross Section
13.562 m², Large (>1 m²)

Expand to show TLE details & history
Last TLE update: 13 hours ago

TLE from 13 hours ago
0 STARLINK-3048
1 49148U 21082U   26125.44060736  .00000548  00000-0  54798-4 0  9999
2 49148  69.9999 132.3181 0003517 264.0181  96.0577 14.97516977254940
Epoch: 2026-05-05T10:34Z
TLE epoch observation values (Epoch: 2026-05-05T10:34:28.475Z)
Latitude
-0.00004°
Longitude
110.38402°
Altitude
577.253 km
Speed
7.572 km/s
True Right ascension
08h 49m 16s
True Declination
0° 00' 00"
Sunlit
Object was in daylight at epoch
Visualization orbit readout
Latitude
Unknown
Longitude
Unknown
Altitude
Unknown
Speed
Unknown
Apparent Right ascension
Unknown
Apparent Declination
Unknown
Sunlit
N/A
Visualization observer readout
Local Sidereal Time
07:13:44
Azimuth
Unknown
Elevation
Unknown
Doppler factor
Unknown
Orbital elements
Apogee altitude
574.965 km
Perigee altitude
570.076 km
Semi-major axis
6,950.657 km
Eccentricity
0.00035
Inclination
69.9999°
RAAN
132.3181°
Arg. of periapsis
264.0181°
True anomaly
96.09777°
Mean anomaly
96.0577°
Eccentric anomaly
96.07774°
Mean motion
3.74545 °/min
Orbital period
96.12 mins
BSTAR
0.000054798
Loading maneuver chart data...
Computing Atmospheric mass density...
Loading historical data...
Loading historical data...
Loading historical data...
Loading historical data...
Loading historical data...
Loading historical data...
Loading historical data...

Documentation

Showing up to 5 results
|